Retour au catalogue

COSMOS 2170

ActifMilitairePO
NORAD 21784·PAYLOAD·🇷🇺 Russia

Lancé Nov 12, 1991 depuis Plesetsk Cosmodrome

Loading…

Prochains Passages (prochaines 24 heures)

TLE

FraisSource: Space-Track

Époque: Sep 14, 2026, 07:31 UTC

1 21784U 91077F   26257.31322747  .00000014  00000-0  18495-4 0  9993
2 21784  82.6090 212.3899 0003848  86.9864  80.3008 12.62589311605320

Suivez COSMOS 2170 en temps réel avec AllMySat

Download on the App Store